TimeCDT,TemperatureF,Dew PointF,Humidity,Sea Level PressureIn,VisibilityMPH,Wind Direction,Wind SpeedMPH,Gust SpeedMPH,PrecipitationIn,Events,Conditions,WindDirDegrees,DateUTC
12:53 AM,60.1,54.0,80,29.97,9.0,North,5.8,-,0.00,Rain,Light Rain,350,2013-05-09 05:53:00
1:53 AM,59.0,54.0,83,29.96,10.0,North,6.9,-,0.00,,Overcast,10,2013-05-09 06:53:00
2:53 AM,59.0,53.1,81,29.95,10.0,NNE,6.9,-,N/A,,Overcast,20,2013-05-09 07:53:00
3:53 AM,60.1,51.1,72,29.94,10.0,NE,9.2,-,N/A,,Overcast,40,2013-05-09 08:53:00
4:53 AM,59.0,51.1,75,29.94,10.0,NE,6.9,-,N/A,,Overcast,50,2013-05-09 09:53:00
5:53 AM,59.0,52.0,78,29.95,10.0,NE,5.8,-,N/A,,Overcast,40,2013-05-09 10:53:00
6:53 AM,59.0,52.0,78,29.96,10.0,NNE,4.6,-,N/A,,Overcast,20,2013-05-09 11:53:00
7:53 AM,59.0,52.0,78,29.97,10.0,NNE,8.1,-,N/A,,Overcast,20,2013-05-09 12:53:00
8:53 AM,59.0,52.0,78,29.98,10.0,NNE,10.4,-,0.00,,Overcast,30,2013-05-09 13:53:00
9:53 AM,59.0,52.0,78,29.98,10.0,NE,10.4,18.4,N/A,,Overcast,40,2013-05-09 14:53:00
10:53 AM,60.1,51.1,72,29.99,10.0,NNE,12.7,-,0.00,Rain,Light Rain,30,2013-05-09 15:53:00
12:53 PM,57.9,52.0,81,30.00,10.0,NNE,15.0,20.7,0.00,Rain,Light Rain,20,2013-05-09 17:53:00
1:05 PM,57.2,51.8,82,30.00,9.0,NNE,16.1,23.0,0.00,Rain,Light Rain,20,2013-05-09 18:05:00
1:53 PM,54.0,48.9,83,30.01,10.0,NNE,16.1,25.3,0.01,Rain,Light Rain,20,2013-05-09 18:53:00
2:53 PM,53.1,46.9,80,30.02,10.0,NNE,12.7,26.5,0.00,,Overcast,20,2013-05-09 19:53:00
3:53 PM,53.1,45.0,74,30.02,10.0,NNE,19.6,26.5,N/A,,Overcast,30,2013-05-09 20:53:00
4:53 PM,50.0,43.0,77,30.03,10.0,NNE,18.4,28.8,N/A,,Overcast,30,2013-05-09 21:53:00
5:53 PM,48.9,41.0,74,30.04,10.0,NNE,19.6,31.1,N/A,,Overcast,20,2013-05-09 22:53:00
6:53 PM,48.9,39.0,69,30.05,10.0,NNE,16.1,26.5,N/A,,Overcast,30,2013-05-09 23:53:00
7:53 PM,48.9,37.9,66,30.07,10.0,NNE,12.7,23.0,N/A,,Overcast,20,2013-05-10 00:53:00
9:02 PM,48.2,33.8,58,30.07,10.0,NE,13.8,20.7,N/A,,Overcast,40,2013-05-10 02:02:00
9:35 PM,48.2,32.0,54,30.07,10.0,NNE,11.5,18.4,N/A,,Overcast,30,2013-05-10 02:35:00
9:53 PM,48.0,30.0,50,30.09,10.0,NE,15.0,24.2,N/A,,Overcast,40,2013-05-10 02:53:00
10:53 PM,46.0,28.0,50,30.10,10.0,NNE,11.5,18.4,N/A,,Scattered Clouds,20,2013-05-10 03:53:00